This is the latest recevied weather packets stored in our database for station/object KB4NWJ. If no packets are shown the sender has not sent any weather packets the latest 1 day(s).
| Time | Temp. | Humidity | Pressure | Rain* | Wind** | Luminosity | Snow |
|---|---|---|---|---|---|---|---|
| 1778054391 | 18.33° C | 91% | 1014.2 hPa | 0 mm | - | 0 W/m² | - |
| 1778053785 | 18.33° C | 89% | 1013.9 hPa | 0 mm | - | 0 W/m² | - |
| 1778052877 | 18.33° C | 88% | 1014 hPa | 0 mm | - | 0 W/m² | - |
| 1778052575 | 18.33° C | 87% | 1013.9 hPa | 0 mm | - | 0 W/m² | - |
| 1778051667 | 17.78° C | 88% | 1014.2 hPa | 0 mm | - | 0 W/m² | - |
| 1778051364 | 17.78° C | 88% | 1014.1 hPa | 0 mm | - | 0 W/m² | - |
| 1778051061 | 17.78° C | 89% | 1014 hPa | 0 mm | - | 0 W/m² | - |
| 1778050758 | 17.22° C | 90% | 1014.1 hPa | 0 mm | - | 0 W/m² | - |
| 1778050152 | 17.22° C | 90% | 1014.2 hPa | 0 mm | - | 0 W/m² | - |
| 1778049848 | 17.22° C | 91% | 1014.7 hPa | 0 mm | - | 0 W/m² | - |
| 1778049545 | 17.22° C | 90% | 1014.7 hPa | 0 mm | - | 0 W/m² | - |
| 1778048334 | 17.78° C | 87% | 1014.5 hPa | 0 mm | - | 0 W/m² | - |
| 1778048031 | 17.78° C | 87% | 1014.5 hPa | 0 mm | - | 0 W/m² | - |
| 1778047729 | 17.78° C | 86% | 1014.7 hPa | 0 mm | - | 0 W/m² | - |
| 1778047123 | 18.33° C | 84% | 1014.4 hPa | 0 mm | - | 0 W/m² | - |
| 1778046820 | 18.33° C | 84% | 1014.6 hPa | 0 mm | - | 0 W/m² | - |
| 1778046517 | 18.89° C | 83% | 1014.9 hPa | 0 mm | - | 0 W/m² | - |
| 1778046214 | 18.89° C | 82% | 1014.7 hPa | 0 mm | - | 0 W/m² | - |
| 1778045910 | 18.89° C | 82% | 1014.9 hPa | 0 mm | - | 0 W/m² | - |
| 1778045307 | 18.89° C | 80% | 1014.6 hPa | 0 mm | - | 0 W/m² | - |
| 1778045005 | 19.44° C | 79% | 1014.7 hPa | 0 mm | - | 0 W/m² | - |
| 1778043490 | 19.44° C | 76% | 1014.1 hPa | 0 mm | - | 0 W/m² | - |
| 1778043187 | 19.44° C | 75% | 1014.3 hPa | 0 mm | - | 0 W/m² | - |
| 1778042884 | 19.44° C | 75% | 1014.4 hPa | 0 mm | - | 0 W/m² | - |
| 1778042581 | 19.44° C | 74% | 1014.2 hPa | 0 mm | - | 0 W/m² | - |
* Rain latest hour (hover to see other rain measurements)
** Current wind speed in m/s (hover to see current wind gust speed)